DW8969 Bellingham WA US current weather conditions

sailwx.info

Wind from 200 at 7 knots

Air temperature 18.9° C
Dewpoint 11.9° C

Last reported at 2019-Jun-19 00:00 UTC.
Time now 2019-Jun-19 01:07 UTC

Location: N 48°43' W 122°31'.
View on Google Maps.

See reports from other nearby stations

  
Tides and Currents Weather Stations Pressure Air Temp Water Temp Dewpoint Dewpoint Depression Visibility Wind Speed Wind Dir Waves Ship Positions
date/time (UTC)wind fromknots sea level pressurealtimeterstation pressurevisibilityair tempwater tempwave heightnotes
2019-Jun-19 00:00 200 7 18.9
2019-Jun-18 23:45 194 9 18.3
2019-Jun-18 23:30 206 9 18.3
2019-Jun-18 23:15 209 13 17.8
2019-Jun-18 23:00 221 12 17.8
2019-Jun-18 22:45 196 10 17.8
2019-Jun-18 22:30 213 10 17.8
2019-Jun-18 22:15 171 9 17.8
2019-Jun-18 22:00 202 7 18.3
2019-Jun-18 21:45 196 10 18.3
2019-Jun-18 21:00 218 10 17.2
2019-Jun-18 20:45 195 9 17.8
2019-Jun-18 20:30 214 8 17.8
2019-Jun-18 20:15 207 7 17.8
2019-Jun-18 20:00 205 8 17.8
2019-Jun-18 19:45 195 7 18.3
2019-Jun-18 19:30 217 7 18.3
2019-Jun-18 19:15 206 7 18.3
2019-Jun-18 19:03 198 7 17.8
2019-Jun-18 18:46 218 8 17.8
2019-Jun-18 18:31 197 7 17.8
2019-Jun-18 18:16 200 7 17.8
2019-Jun-18 18:01 186 7 17.2
2019-Jun-18 17:47 218 6 17.2
2019-Jun-18 17:31 230 6 17.8
2019-Jun-18 17:17 216 6 17.2
2019-Jun-18 17:01 220 13 16.7
2019-Jun-18 16:46
2019-Jun-18 16:31
2019-Jun-18 16:16
2019-Jun-18 16:00
2019-Jun-18 15:46
2019-Jun-18 15:30
2019-Jun-18 15:15 307 3 15.0
2019-Jun-18 15:00 042 3 15.0
2019-Jun-18 14:45 340 3 15.0
2019-Jun-18 14:30 109 4 14.4
2019-Jun-18 14:15 035 3 14.4
2019-Jun-18 14:00 027 3 14.4
2019-Jun-18 13:45 316 3 14.4
2019-Jun-18 13:30 348 4 14.4
2019-Jun-18 13:15 328 6 14.4
2019-Jun-18 13:00 326 6 14.4
2019-Jun-18 12:45 319 4 14.4
2019-Jun-18 12:30 335 5 14.4
2019-Jun-18 12:17 011 5 14.4
2019-Jun-18 12:02 338 5 14.4
2019-Jun-18 11:47 315 4 14.4
2019-Jun-18 11:32 325 5 14.4
2019-Jun-18 11:16 339 4 14.4
2019-Jun-18 11:01 318 6 14.4
2019-Jun-18 10:47 338 6 14.4
2019-Jun-18 10:32 329 4 15.0
2019-Jun-18 10:17 011 3 15.0
2019-Jun-18 10:01 327 3 14.4
2019-Jun-18 09:46 032 4 15.0
2019-Jun-18 09:31 030 3 15.0
2019-Jun-18 09:16 040 3 15.0
2019-Jun-18 09:02 018 3 15.0
2019-Jun-18 08:46 017 6 15.0
2019-Jun-18 08:31 341 6 15.0
2019-Jun-18 08:16 053 3 15.0
2019-Jun-18 08:01 337 7 15.0
2019-Jun-18 07:46 335 6 15.6
2019-Jun-18 07:31 341 2 15.0
2019-Jun-18 07:15 355 3 15.0
2019-Jun-18 07:00 360 6 15.0
2019-Jun-18 06:45 345 7 15.0
2019-Jun-18 06:31 023 6 16.1
2019-Jun-18 06:16 018 6 16.1
2019-Jun-18 06:00 343 6 16.1
2019-Jun-18 05:46 336 6 16.1
2019-Jun-18 05:30 332 5 16.1
2019-Jun-18 05:16 348 6 16.7
2019-Jun-18 05:01 017 4 16.7
2019-Jun-18 04:46 349 2 17.2
2019-Jun-18 04:30 207 2 17.8
2019-Jun-18 04:15 173 3 18.3
2019-Jun-18 04:00 172 2 18.9
2019-Jun-18 03:45 184 4 18.9
2019-Jun-18 03:31 193 4 18.9
2019-Jun-18 03:16 190 5 19.4
2019-Jun-18 03:00 198 4 20.0
2019-Jun-18 02:46 189 5 20.0
2019-Jun-18 02:30 194 4 20.6
2019-Jun-18 02:15 199 6 20.0
2019-Jun-18 02:00 207 6 20.6
2019-Jun-18 01:45 187 5 20.6
2019-Jun-18 01:30 211 6 19.4
2019-Jun-18 01:15 189 5 20.0
2019-Jun-18 01:00 192 5 18.9
2019-Jun-18 00:45 212 5 18.9
2019-Jun-18 00:31 211 10 17.8
2019-Jun-18 00:16 198 11 17.8
2019-Jun-18 00:01 219 12 17.8
2019-Jun-17 23:46 204 10 17.2
2019-Jun-17 23:31 229 12 16.7
2019-Jun-17 23:16 208 11 17.2
2019-Jun-17 23:01 219 12 17.8
2019-Jun-17 22:46 196 10 17.2
2019-Jun-17 22:31 203 12 17.2
2019-Jun-17 22:16 210 11 16.7
2019-Jun-17 22:02 229 11 17.2
2019-Jun-17 21:47 187 13 17.2
2019-Jun-17 21:31 227 13 17.2
2019-Jun-17 21:17 200 10 17.2
2019-Jun-17 21:01 202 9 17.2
2019-Jun-17 20:46 192 9 17.2
2019-Jun-17 20:31 212 12 16.7
2019-Jun-17 20:15 213 11 16.7
2019-Jun-17 20:01 207 11 16.7
2019-Jun-17 19:46 192 12 16.1
2019-Jun-17 19:31 210 10 16.1
2019-Jun-17 19:16 225 10 15.6
2019-Jun-17 19:02 215 10 15.6
2019-Jun-17 18:47 189 11 15.0
2019-Jun-17 18:32 202 10 15.0